Time,TemperatureF,DewpointF,PressureIn,WindDirection,WindDirectionDegrees,WindSpeedMPH,WindSpeedGustMPH,Humidity,HourlyPrecipIn,Conditions,Clouds,dailyrainin,SoftwareType,DateUTC
2013-03-24 00:02:00,24.0,22.0,30.42,SE,133,0.0,-999.0,93,-99.99,,,-99.99,,2013-03-24 07:02:00,
2013-03-24 00:11:00,24.0,22.0,30.42,SE,133,0.0,-999.0,93,-99.99,,,-99.99,,2013-03-24 07:11:00,
2013-03-24 00:22:00,23.0,21.0,30.42,SE,133,0.0,-999.0,93,-99.99,,,-99.99,,2013-03-24 07:22:00,
2013-03-24 00:31:00,23.0,21.0,30.42,SE,133,0.0,-999.0,93,-99.99,,,-99.99,,2013-03-24 07:31:00,
2013-03-24 00:42:00,23.0,21.0,30.42,SE,133,0.0,-999.0,93,-99.99,,,-99.99,,2013-03-24 07:42:00,
2013-03-24 00:52:00,22.0,20.0,30.42,SE,133,0.0,-999.0,93,-99.99,,,-99.99,,2013-03-24 07:52:00,
2013-03-24 01:02:00,22.0,20.0,30.42,SE,133,0.0,-999.0,93,-99.99,,,-99.99,,2013-03-24 08:02:00,
2013-03-24 01:12:00,22.0,20.0,30.42,SE,133,0.0,-999.0,93,-99.99,,,-99.99,,2013-03-24 08:12:00,
2013-03-24 01:22:00,22.0,20.0,30.42,SE,133,0.0,-999.0,93,-99.99,,,-99.99,,2013-03-24 08:22:00,
2013-03-24 01:31:00,21.0,19.0,30.42,SE,133,0.0,-999.0,93,-99.99,,,-99.99,,2013-03-24 08:31:00,
2013-03-24 01:41:00,21.0,19.0,30.42,SE,133,0.0,-999.0,93,-99.99,,,-99.99,,2013-03-24 08:41:00,
2013-03-24 01:52:00,21.0,19.0,30.43,SE,133,0.0,-999.0,93,-99.99,,,-99.99,,2013-03-24 08:52:00,
2013-03-24 02:01:00,21.0,19.0,30.43,SE,133,0.0,-999.0,93,-99.99,,,-99.99,,2013-03-24 09:01:00,
2013-03-24 02:12:00,21.0,19.0,30.43,SE,133,0.0,-999.0,93,-99.99,,,-99.99,,2013-03-24 09:12:00,
2013-03-24 02:21:00,20.0,18.0,30.43,SE,133,0.0,-999.0,93,-99.99,,,-99.99,,2013-03-24 09:21:00,
2013-03-24 02:32:00,20.0,18.0,30.43,SE,133,0.0,-999.0,93,-99.99,,,-99.99,,2013-03-24 09:32:00,
2013-03-24 02:42:00,20.0,18.0,30.43,SE,133,0.0,-999.0,93,-99.99,,,-99.99,,2013-03-24 09:42:00,
2013-03-24 02:52:00,20.0,18.0,30.43,SE,133,0.0,-999.0,93,-99.99,,,-99.99,,2013-03-24 09:52:00,
2013-03-24 03:02:00,20.0,18.0,30.42,SE,133,0.0,-999.0,92,-99.99,,,-99.99,,2013-03-24 10:02:00,
2013-03-24 03:12:00,20.0,18.0,30.42,SE,133,0.0,-999.0,92,-99.99,,,-99.99,,2013-03-24 10:12:00,
2013-03-24 03:22:00,19.0,17.0,30.42,SE,133,0.0,-999.0,92,-99.99,,,-99.99,,2013-03-24 10:22:00,
2013-03-24 03:32:00,20.0,18.0,30.42,ENE,57,0.0,-999.0,92,-99.99,,,-99.99,,2013-03-24 10:32:00,
2013-03-24 03:41:00,20.0,18.0,30.42,ENE,57,0.0,-999.0,92,-99.99,,,-99.99,,2013-03-24 10:41:00,
2013-03-24 03:52:00,19.0,17.0,30.43,ENE,57,0.0,-999.0,92,-99.99,,,-99.99,,2013-03-24 10:52:00,
2013-03-24 04:02:00,19.0,17.0,30.43,ENE,57,0.0,-999.0,92,-99.99,,,-99.99,,2013-03-24 11:02:00,
2013-03-24 04:11:00,19.0,17.0,30.43,ENE,57,0.0,-999.0,92,-99.99,,,-99.99,,2013-03-24 11:11:00,
2013-03-24 04:21:00,19.0,17.0,30.42,ENE,57,0.0,-999.0,92,-99.99,,,-99.99,,2013-03-24 11:21:00,
2013-03-24 04:32:00,19.0,17.0,30.43,ENE,57,0.0,-999.0,92,-99.99,,,-99.99,,2013-03-24 11:32:00,
2013-03-24 04:42:00,19.0,17.0,30.43,ENE,57,0.0,-999.0,92,-99.99,,,-99.99,,2013-03-24 11:42:00,
2013-03-24 04:52:00,19.0,17.0,30.43,ENE,57,0.0,-999.0,91,-99.99,,,-99.99,,2013-03-24 11:52:00,
2013-03-24 05:02:00,19.0,17.0,30.43,ENE,57,0.0,-999.0,92,-99.99,,,-99.99,,2013-03-24 12:02:00,
2013-03-24 05:12:00,19.0,17.0,30.43,ENE,57,0.0,-999.0,92,-99.99,,,-99.99,,2013-03-24 12:12:00,
2013-03-24 05:22:00,18.0,16.0,30.43,ENE,57,0.0,-999.0,91,-99.99,,,-99.99,,2013-03-24 12:22:00,
2013-03-24 05:32:00,18.0,16.0,30.44,ENE,57,0.0,-999.0,92,-99.99,,,-99.99,,2013-03-24 12:32:00,
2013-03-24 05:42:00,18.0,16.0,30.44,ENE,57,0.0,-999.0,92,-99.99,,,-99.99,,2013-03-24 12:42:00,
2013-03-24 05:52:00,18.0,16.0,30.44,ENE,57,0.0,-999.0,91,-99.99,,,-99.99,,2013-03-24 12:52:00,
2013-03-24 06:01:00,18.0,16.0,30.44,ENE,57,0.0,-999.0,92,-99.99,,,-99.99,,2013-03-24 13:01:00,
2013-03-24 06:11:00,18.0,16.0,30.44,ENE,57,0.0,-999.0,92,-99.99,,,-99.99,,2013-03-24 13:11:00,
2013-03-24 06:22:00,18.0,16.0,30.44,ENE,57,0.0,-999.0,92,-99.99,,,-99.99,,2013-03-24 13:22:00,
2013-03-24 06:31:00,18.0,16.0,30.45,ENE,57,0.0,-999.0,92,-99.99,,,-99.99,,2013-03-24 13:31:00,
2013-03-24 06:42:00,18.0,16.0,30.45,ENE,57,0.0,-999.0,92,-99.99,,,-99.99,,2013-03-24 13:42:00,
2013-03-24 06:52:00,17.0,15.0,30.45,ENE,57,0.0,-999.0,92,-99.99,,,-99.99,,2013-03-24 13:52:00,
2013-03-24 07:01:00,17.0,15.0,30.45,ENE,57,0.0,-999.0,92,-99.99,,,-99.99,,2013-03-24 14:01:00,
2013-03-24 07:11:00,17.0,15.0,30.45,ENE,57,0.0,-999.0,92,-99.99,,,-99.99,,2013-03-24 14:11:00,
2013-03-24 07:22:00,17.0,15.0,30.46,ENE,57,0.0,-999.0,92,-99.99,,,-99.99,,2013-03-24 14:22:00,
2013-03-24 07:32:00,17.0,15.0,30.46,ENE,57,0.0,-999.0,93,-99.99,,,-99.99,,2013-03-24 14:32:00,
2013-03-24 07:42:00,17.0,15.0,30.46,ENE,57,0.0,-999.0,93,-99.99,,,-99.99,,2013-03-24 14:42:00,
2013-03-24 07:52:00,19.0,17.0,30.46,ENE,57,0.0,-999.0,92,-99.99,,,-99.99,,2013-03-24 14:52:00,
2013-03-24 08:01:00,20.0,18.0,30.45,ENE,57,0.0,-999.0,93,-99.99,,,-99.99,,2013-03-24 15:01:00,
2013-03-24 08:12:00,20.0,18.0,30.45,ENE,57,0.0,-999.0,93,-99.99,,,-99.99,,2013-03-24 15:12:00,
2013-03-24 08:22:00,20.0,18.0,30.45,ENE,57,0.0,-999.0,91,-99.99,,,-99.99,,2013-03-24 15:22:00,
2013-03-24 08:32:00,23.0,21.0,30.46,ENE,57,0.0,-999.0,91,-99.99,,,-99.99,,2013-03-24 15:32:00,
2013-03-24 08:42:00,23.0,21.0,30.46,ENE,57,0.0,-999.0,91,-99.99,,,-99.99,,2013-03-24 15:42:00,
2013-03-24 08:53:00,24.0,21.0,30.46,ENE,57,0.0,-999.0,88,-99.99,,,-99.99,,2013-03-24 15:53:00,
2013-03-24 09:02:00,25.0,22.0,30.46,ENE,57,0.0,-999.0,87,-99.99,,,-99.99,,2013-03-24 16:02:00,
2013-03-24 09:12:00,25.0,22.0,30.46,ENE,57,0.0,-999.0,87,-99.99,,,-99.99,,2013-03-24 16:12:00,
2013-03-24 09:22:00,28.0,24.0,30.46,ENE,57,0.0,-999.0,83,-99.99,,,-99.99,,2013-03-24 16:22:00,
2013-03-24 09:32:00,27.0,22.0,30.46,SSW,200,1.0,-999.0,82,-99.99,,,-99.99,,2013-03-24 16:32:00,
2013-03-24 09:42:00,27.0,22.0,30.46,SSW,200,1.0,-999.0,82,-99.99,,,-99.99,,2013-03-24 16:42:00,
2013-03-24 09:52:00,28.0,23.0,30.46,SSE,163,1.0,-999.0,82,-99.99,,,-99.99,,2013-03-24 16:52:00,
2013-03-24 10:02:00,29.0,23.0,30.46,East,81,1.0,-999.0,77,-99.99,,,-99.99,,2013-03-24 17:02:00,
2013-03-24 10:12:00,29.0,23.0,30.46,East,81,1.0,-999.0,77,-99.99,,,-99.99,,2013-03-24 17:12:00,
2013-03-24 10:22:00,31.0,25.0,30.46,SSE,150,0.0,-999.0,77,-99.99,,,-99.99,,2013-03-24 17:22:00,
2013-03-24 10:32:00,31.0,23.0,30.46,South,177,1.0,-999.0,73,-99.99,,,-99.99,,2013-03-24 17:32:00,
2013-03-24 10:42:00,31.0,23.0,30.46,South,177,1.0,-999.0,73,-99.99,,,-99.99,,2013-03-24 17:42:00,
2013-03-24 10:53:00,32.0,25.0,30.45,South,176,1.0,-999.0,74,-99.99,,,-99.99,,2013-03-24 17:53:00,
2013-03-24 11:02:00,33.0,25.0,30.45,ESE,117,2.0,-999.0,71,-99.99,,,-99.99,,2013-03-24 18:02:00,
2013-03-24 11:12:00,33.0,25.0,30.45,ESE,117,2.0,-999.0,71,-99.99,,,-99.99,,2013-03-24 18:12:00,
2013-03-24 11:22:00,34.0,25.0,30.44,SE,140,2.0,-999.0,70,-99.99,,,-99.99,,2013-03-24 18:22:00,
2013-03-24 11:32:00,35.0,26.0,30.44,South,176,2.0,-999.0,70,-99.99,,,-99.99,,2013-03-24 18:32:00,
2013-03-24 11:42:00,35.0,26.0,30.44,South,176,2.0,-999.0,70,-99.99,,,-99.99,,2013-03-24 18:42:00,
2013-03-24 11:52:00,35.0,25.0,30.44,South,175,2.0,-999.0,67,-99.99,,,-99.99,,2013-03-24 18:52:00,
2013-03-24 12:02:00,36.0,24.0,30.43,SE,129,2.0,-999.0,62,-99.99,,,-99.99,,2013-03-24 19:02:00,
2013-03-24 12:11:00,36.0,24.0,30.43,SE,129,2.0,-999.0,62,-99.99,,,-99.99,,2013-03-24 19:11:00,
2013-03-24 12:22:00,38.0,24.0,30.43,SE,140,3.0,-999.0,56,-99.99,,,-99.99,,2013-03-24 19:22:00,
2013-03-24 12:31:00,37.0,23.0,30.43,SSE,153,2.0,-999.0,56,-99.99,,,-99.99,,2013-03-24 19:31:00,
2013-03-24 12:42:00,37.0,23.0,30.43,SSE,153,2.0,-999.0,56,-99.99,,,-99.99,,2013-03-24 19:42:00,
2013-03-24 12:53:00,37.0,23.0,30.42,SW,226,4.0,-999.0,56,-99.99,,,-99.99,,2013-03-24 19:53:00,
2013-03-24 13:02:00,38.0,23.0,30.42,South,190,2.0,-999.0,55,-99.99,,,-99.99,,2013-03-24 20:02:00,
2013-03-24 13:12:00,38.0,23.0,30.42,South,190,2.0,-999.0,55,-99.99,,,-99.99,,2013-03-24 20:12:00,
2013-03-24 13:22:00,40.0,21.0,30.42,SE,125,3.0,-999.0,47,-99.99,,,-99.99,,2013-03-24 20:22:00,
2013-03-24 13:31:00,39.0,21.0,30.42,East,83,3.0,-999.0,48,-99.99,,,-99.99,,2013-03-24 20:31:00,
2013-03-24 13:42:00,39.0,21.0,30.42,East,83,3.0,-999.0,48,-99.99,,,-99.99,,2013-03-24 20:42:00,
2013-03-24 13:53:00,40.0,19.0,30.41,East,82,3.0,-999.0,42,-99.99,,,-99.99,,2013-03-24 20:53:00,
2013-03-24 14:02:00,41.0,17.0,30.41,East,96,3.0,-999.0,38,-99.99,,,-99.99,,2013-03-24 21:02:00,
2013-03-24 14:11:00,41.0,17.0,30.41,East,96,3.0,-999.0,38,-99.99,,,-99.99,,2013-03-24 21:11:00,
2013-03-24 14:22:00,40.0,15.0,30.40,East,82,2.0,-999.0,35,-99.99,,,-99.99,,2013-03-24 21:22:00,
2013-03-24 14:32:00,41.0,17.0,30.39,WNW,295,3.0,-999.0,38,-99.99,,,-99.99,,2013-03-24 21:32:00,
2013-03-24 14:42:00,41.0,17.0,30.39,WNW,295,3.0,-999.0,38,-99.99,,,-99.99,,2013-03-24 21:42:00,
2013-03-24 14:53:00,41.0,15.0,30.38,South,170,2.0,-999.0,35,-99.99,,,-99.99,,2013-03-24 21:53:00,
2013-03-24 15:02:00,41.0,15.0,30.38,West,280,3.0,-999.0,35,-99.99,,,-99.99,,2013-03-24 22:02:00,
2013-03-24 15:12:00,41.0,15.0,30.38,West,280,3.0,-999.0,35,-99.99,,,-99.99,,2013-03-24 22:12:00,
2013-03-24 15:22:00,42.0,16.0,30.37,East,97,1.0,-999.0,35,-99.99,,,-99.99,,2013-03-24 22:22:00,
2013-03-24 15:32:00,43.0,19.0,30.37,South,189,0.0,-999.0,37,-99.99,,,-99.99,,2013-03-24 22:32:00,
2013-03-24 15:42:00,43.0,19.0,30.37,South,189,0.0,-999.0,37,-99.99,,,-99.99,,2013-03-24 22:42:00,
2013-03-24 15:52:00,43.0,20.0,30.36,South,182,0.0,-999.0,40,-99.99,,,-99.99,,2013-03-24 22:52:00,
2013-03-24 16:02:00,43.0,19.0,30.35,East,80,2.0,-999.0,38,-99.99,,,-99.99,,2013-03-24 23:02:00,
2013-03-24 16:22:00,42.0,19.0,30.35,WSW,243,4.0,-999.0,39,-99.99,,,-99.99,,2013-03-24 23:22:00,
2013-03-24 16:32:00,42.0,20.0,30.34,ESE,110,1.0,-999.0,41,-99.99,,,-99.99,,2013-03-24 23:32:00,
2013-03-24 16:42:00,42.0,20.0,30.34,ESE,110,1.0,-999.0,41,-99.99,,,-99.99,,2013-03-24 23:42:00,
2013-03-24 16:52:00,42.0,19.0,30.34,SE,138,1.0,-999.0,40,-99.99,,,-99.99,,2013-03-24 23:52:00,
2013-03-24 17:01:00,42.0,19.0,30.33,SE,135,1.0,-999.0,39,-99.99,,,-99.99,,2013-03-25 00:01:00,
2013-03-24 17:11:00,42.0,19.0,30.33,SE,135,1.0,-999.0,39,-99.99,,,-99.99,,2013-03-25 00:11:00,
2013-03-24 17:22:00,42.0,19.0,30.33,SE,135,1.0,-999.0,39,-99.99,,,-99.99,,2013-03-25 00:22:00,
2013-03-24 17:32:00,42.0,19.0,30.33,East,96,1.0,-999.0,40,-99.99,,,-99.99,,2013-03-25 00:32:00,
2013-03-24 17:42:00,42.0,19.0,30.33,East,96,1.0,-999.0,40,-99.99,,,-99.99,,2013-03-25 00:42:00,
2013-03-24 17:52:00,41.0,20.0,30.32,ENE,74,1.0,-999.0,42,-99.99,,,-99.99,,2013-03-25 00:52:00,
2013-03-24 18:02:00,41.0,22.0,30.32,SSE,163,1.0,-999.0,46,-99.99,,,-99.99,,2013-03-25 01:02:00,
2013-03-24 18:11:00,41.0,22.0,30.32,SSE,163,1.0,-999.0,46,-99.99,,,-99.99,,2013-03-25 01:11:00,
2013-03-24 18:21:00,41.0,21.0,30.32,East,87,0.0,-999.0,44,-99.99,,,-99.99,,2013-03-25 01:21:00,
2013-03-24 18:32:00,40.0,20.0,30.31,East,87,0.0,-999.0,45,-99.99,,,-99.99,,2013-03-25 01:32:00,
2013-03-24 18:42:00,40.0,20.0,30.31,East,87,0.0,-999.0,45,-99.99,,,-99.99,,2013-03-25 01:42:00,
2013-03-24 18:52:00,40.0,20.0,30.31,East,87,0.0,-999.0,45,-99.99,,,-99.99,,2013-03-25 01:52:00,
2013-03-24 19:01:00,39.0,25.0,30.30,East,87,0.0,-999.0,56,-99.99,,,-99.99,,2013-03-25 02:01:00,
2013-03-24 19:11:00,39.0,25.0,30.30,East,87,0.0,-999.0,56,-99.99,,,-99.99,,2013-03-25 02:11:00,
2013-03-24 19:22:00,36.0,25.0,30.30,East,87,0.0,-999.0,65,-99.99,,,-99.99,,2013-03-25 02:22:00,
2013-03-24 19:32:00,34.0,22.0,30.30,East,87,0.0,-999.0,62,-99.99,,,-99.99,,2013-03-25 02:32:00,
2013-03-24 19:42:00,34.0,22.0,30.30,East,87,0.0,-999.0,62,-99.99,,,-99.99,,2013-03-25 02:42:00,
2013-03-24 19:52:00,32.0,23.0,30.29,East,87,0.0,-999.0,70,-99.99,,,-99.99,,2013-03-25 02:52:00,
2013-03-24 20:01:00,31.0,24.0,30.29,East,87,0.0,-999.0,75,-99.99,,,-99.99,,2013-03-25 03:01:00,
2013-03-24 20:12:00,31.0,24.0,30.29,East,87,0.0,-999.0,75,-99.99,,,-99.99,,2013-03-25 03:12:00,
2013-03-24 20:22:00,30.0,24.0,30.29,East,87,0.0,-999.0,78,-99.99,,,-99.99,,2013-03-25 03:22:00,
2013-03-24 20:32:00,29.0,24.0,30.29,East,87,0.0,-999.0,80,-99.99,,,-99.99,,2013-03-25 03:32:00,
2013-03-24 20:42:00,29.0,24.0,30.29,East,87,0.0,-999.0,82,-99.99,,,-99.99,,2013-03-25 03:42:00,
2013-03-24 20:53:00,29.0,24.0,30.29,East,87,0.0,-999.0,82,-99.99,,,-99.99,,2013-03-25 03:53:00,
2013-03-24 21:02:00,29.0,25.0,30.29,East,87,0.0,-999.0,84,-99.99,,,-99.99,,2013-03-25 04:02:00,
2013-03-24 21:12:00,29.0,25.0,30.29,East,87,0.0,-999.0,84,-99.99,,,-99.99,,2013-03-25 04:12:00,
2013-03-24 21:22:00,28.0,24.0,30.29,East,87,0.0,-999.0,85,-99.99,,,-99.99,,2013-03-25 04:22:00,
2013-03-24 21:32:00,28.0,24.0,30.29,East,87,0.0,-999.0,86,-99.99,,,-99.99,,2013-03-25 04:32:00,
2013-03-24 21:42:00,28.0,24.0,30.29,East,87,0.0,-999.0,86,-99.99,,,-99.99,,2013-03-25 04:42:00,
2013-03-24 21:52:00,28.0,25.0,30.29,East,87,0.0,-999.0,87,-99.99,,,-99.99,,2013-03-25 04:52:00,
2013-03-24 22:02:00,27.0,24.0,30.29,East,87,0.0,-999.0,87,-99.99,,,-99.99,,2013-03-25 05:02:00,
2013-03-24 22:12:00,27.0,24.0,30.29,East,87,0.0,-999.0,87,-99.99,,,-99.99,,2013-03-25 05:12:00,
2013-03-24 22:22:00,27.0,24.0,30.29,East,87,0.0,-999.0,88,-99.99,,,-99.99,,2013-03-25 05:22:00,
2013-03-24 22:32:00,27.0,24.0,30.30,East,87,0.0,-999.0,89,-99.99,,,-99.99,,2013-03-25 05:32:00,
2013-03-24 22:42:00,27.0,24.0,30.30,East,87,0.0,-999.0,89,-99.99,,,-99.99,,2013-03-25 05:42:00,
2013-03-24 22:52:00,26.0,23.0,30.30,East,87,0.0,-999.0,89,-99.99,,,-99.99,,2013-03-25 05:52:00,
2013-03-24 23:01:00,26.0,23.0,30.30,East,87,0.0,-999.0,90,-99.99,,,-99.99,,2013-03-25 06:01:00,
2013-03-24 23:11:00,26.0,23.0,30.30,East,87,0.0,-999.0,90,-99.99,,,-99.99,,2013-03-25 06:11:00,
2013-03-24 23:21:00,26.0,23.0,30.30,East,87,0.0,-999.0,90,-99.99,,,-99.99,,2013-03-25 06:21:00,
2013-03-24 23:32:00,25.0,23.0,30.30,East,87,0.0,-999.0,91,-99.99,,,-99.99,,2013-03-25 06:32:00,
2013-03-24 23:42:00,25.0,23.0,30.30,East,87,0.0,-999.0,91,-99.99,,,-99.99,,2013-03-25 06:42:00,
2013-03-24 23:52:00,25.0,23.0,30.30,East,87,0.0,-999.0,91,-99.99,,,-99.99,,2013-03-25 06:52:00,